TimeCST,TemperatureF,Dew PointF,Humidity,Sea Level PressureIn,VisibilityMPH,Wind Direction,Wind SpeedMPH,Gust SpeedMPH,PrecipitationIn,Events,Conditions,WindDirDegrees,DateUTC
12:15 AM,15.8,12.2,86,30.29,10.0,SE,10.4,-,N/A,,Overcast,140,2013-03-06 06:15:00
12:35 AM,15.8,12.2,86,30.28,10.0,SSE,8.1,-,N/A,,Overcast,150,2013-03-06 06:35:00
12:55 AM,15.8,12.2,86,30.27,10.0,SSE,6.9,-,N/A,,Overcast,150,2013-03-06 06:55:00
1:15 AM,15.8,12.2,86,30.27,10.0,SSE,11.5,-,N/A,,Overcast,150,2013-03-06 07:15:00
1:35 AM,15.8,12.2,86,30.26,10.0,SE,11.5,-,N/A,,Overcast,130,2013-03-06 07:35:00
1:55 AM,15.8,12.2,86,30.26,10.0,SE,8.1,-,N/A,,Overcast,140,2013-03-06 07:55:00
2:15 AM,15.8,12.2,86,30.26,10.0,SSE,11.5,-,N/A,,Overcast,150,2013-03-06 08:15:00
2:35 AM,15.8,12.2,86,30.26,10.0,SE,11.5,-,N/A,,Overcast,140,2013-03-06 08:35:00
2:55 AM,15.8,12.2,86,30.26,10.0,SSE,9.2,-,N/A,,Overcast,150,2013-03-06 08:55:00
3:15 AM,15.8,12.2,86,30.25,10.0,South,8.1,-,N/A,,Overcast,170,2013-03-06 09:15:00
3:35 AM,15.8,12.2,86,30.24,10.0,SSE,9.2,-,N/A,,Overcast,160,2013-03-06 09:35:00
3:55 AM,15.8,12.2,86,30.24,10.0,South,8.1,-,N/A,,Overcast,170,2013-03-06 09:55:00
4:15 AM,15.8,12.2,86,30.24,10.0,SSE,10.4,-,N/A,,Overcast,150,2013-03-06 10:15:00
4:35 AM,15.8,12.2,86,30.23,10.0,SSE,10.4,-,N/A,,Overcast,150,2013-03-06 10:35:00
4:55 AM,15.8,12.2,86,30.22,10.0,SSE,11.5,-,N/A,,Overcast,150,2013-03-06 10:55:00
5:15 AM,15.8,12.2,86,30.23,10.0,SSE,10.4,-,N/A,,Overcast,150,2013-03-06 11:15:00
5:35 AM,15.8,12.2,86,30.22,10.0,SSE,10.4,-,N/A,,Overcast,150,2013-03-06 11:35:00
5:55 AM,14.0,10.4,86,30.23,10.0,SSE,11.5,-,N/A,,Overcast,150,2013-03-06 11:55:00
6:15 AM,14.0,12.2,93,30.22,10.0,SE,11.5,-,N/A,,Overcast,140,2013-03-06 12:15:00
6:35 AM,14.0,10.4,86,30.22,10.0,SE,10.4,-,N/A,,Overcast,140,2013-03-06 12:35:00
6:55 AM,14.0,10.4,86,30.22,10.0,ESE,8.1,-,N/A,,Overcast,120,2013-03-06 12:55:00
7:15 AM,14.0,10.4,86,30.22,10.0,ESE,6.9,-,N/A,,Overcast,120,2013-03-06 13:15:00
7:35 AM,14.0,10.4,86,30.21,10.0,ESE,5.8,-,N/A,,Overcast,120,2013-03-06 13:35:00
7:55 AM,12.2,10.4,92,30.20,10.0,ESE,4.6,-,N/A,,Overcast,120,2013-03-06 13:55:00
8:15 AM,14.0,10.4,86,30.20,10.0,SE,4.6,-,N/A,,Overcast,130,2013-03-06 14:15:00
8:35 AM,14.0,10.4,86,30.19,10.0,SE,6.9,-,N/A,,Overcast,130,2013-03-06 14:35:00
8:55 AM,14.0,10.4,86,30.19,10.0,ESE,9.2,-,N/A,,Mostly Cloudy,120,2013-03-06 14:55:00
9:15 AM,14.0,10.4,86,30.19,10.0,SE,9.2,-,N/A,,Scattered Clouds,130,2013-03-06 15:15:00
9:35 AM,15.8,10.4,79,30.18,10.0,SE,12.7,-,N/A,,Partly Cloudy,130,2013-03-06 15:35:00
9:55 AM,15.8,12.2,86,30.18,10.0,SE,12.7,-,N/A,,Clear,130,2013-03-06 15:55:00
10:15 AM,17.6,14.0,86,30.17,10.0,SE,15.0,-,N/A,,Clear,130,2013-03-06 16:15:00
10:35 AM,17.6,14.0,86,30.16,10.0,ESE,15.0,19.6,N/A,,Clear,120,2013-03-06 16:35:00
10:55 AM,17.6,14.0,86,30.15,10.0,SE,17.3,-,N/A,,Clear,130,2013-03-06 16:55:00
11:15 AM,17.6,12.2,79,30.14,10.0,SE,17.3,-,N/A,,Clear,140,2013-03-06 17:15:00
11:35 AM,17.6,12.2,79,30.13,10.0,SE,17.3,-,N/A,,Clear,130,2013-03-06 17:35:00
11:55 AM,17.6,14.0,86,30.13,10.0,ESE,17.3,-,N/A,,Clear,120,2013-03-06 17:55:00
12:15 PM,17.6,14.0,86,30.12,10.0,SE,18.4,-,N/A,,Clear,130,2013-03-06 18:15:00
12:35 PM,19.4,14.0,80,30.11,10.0,SE,16.1,-,N/A,,Clear,130,2013-03-06 18:35:00
12:55 PM,19.4,14.0,80,30.10,10.0,SE,17.3,-,N/A,,Clear,130,2013-03-06 18:55:00
1:15 PM,19.4,15.8,86,30.09,10.0,SE,15.0,-,N/A,,Clear,130,2013-03-06 19:15:00
1:35 PM,19.4,15.8,86,30.08,10.0,ESE,16.1,-,N/A,,Clear,120,2013-03-06 19:35:00
1:55 PM,21.2,15.8,80,30.07,10.0,ESE,15.0,-,N/A,,Partly Cloudy,120,2013-03-06 19:55:00
2:15 PM,21.2,15.8,80,30.05,10.0,SE,18.4,-,N/A,,Clear,130,2013-03-06 20:15:00
2:35 PM,23.0,15.8,74,30.04,10.0,SE,18.4,-,N/A,,Clear,130,2013-03-06 20:35:00
2:55 PM,23.0,17.6,80,30.03,10.0,ESE,16.1,-,N/A,,Clear,120,2013-03-06 20:55:00
3:15 PM,23.0,17.6,80,30.02,10.0,ESE,15.0,-,N/A,,Clear,120,2013-03-06 21:15:00
3:35 PM,23.0,17.6,80,30.02,10.0,SE,18.4,-,N/A,,Clear,130,2013-03-06 21:35:00
3:55 PM,23.0,17.6,80,30.01,10.0,ESE,19.6,-,N/A,,Clear,120,2013-03-06 21:55:00
4:15 PM,23.0,17.6,80,30.01,10.0,ESE,19.6,24.2,N/A,,Partly Cloudy,120,2013-03-06 22:15:00
4:35 PM,23.0,17.6,80,30.00,10.0,ESE,16.1,-,N/A,,Scattered Clouds,120,2013-03-06 22:35:00
4:55 PM,23.0,17.6,80,30.00,10.0,ESE,18.4,-,N/A,,Overcast,120,2013-03-06 22:55:00
5:15 PM,23.0,17.6,80,30.00,10.0,ESE,16.1,-,N/A,,Overcast,120,2013-03-06 23:15:00
5:35 PM,23.0,17.6,80,30.00,10.0,ESE,16.1,-,N/A,,Overcast,120,2013-03-06 23:35:00
5:55 PM,23.0,17.6,80,30.00,10.0,ESE,16.1,-,N/A,,Overcast,120,2013-03-06 23:55:00
6:15 PM,21.2,17.6,86,29.99,10.0,ESE,13.8,-,N/A,,Overcast,120,2013-03-07 00:15:00
6:35 PM,21.2,17.6,86,29.98,10.0,ESE,15.0,-,N/A,,Overcast,120,2013-03-07 00:35:00
6:55 PM,21.2,17.6,86,29.98,10.0,ESE,16.1,-,N/A,,Overcast,120,2013-03-07 00:55:00
7:15 PM,21.2,17.6,86,29.97,10.0,ESE,17.3,-,N/A,,Overcast,120,2013-03-07 01:15:00
7:35 PM,21.2,17.6,86,29.98,10.0,North,-9999.0,-,N/A,,Overcast,0,2013-03-07 01:35:00
7:55 PM,21.2,17.6,86,29.97,10.0,ESE,16.1,23.0,N/A,,Overcast,120,2013-03-07 01:55:00
8:35 PM,19.4,17.6,93,29.95,10.0,ESE,19.6,24.2,N/A,,Overcast,120,2013-03-07 02:35:00
8:55 PM,19.4,17.6,93,29.95,10.0,SE,19.6,-,N/A,,Overcast,130,2013-03-07 02:55:00
9:15 PM,19.4,15.8,86,29.95,10.0,SE,20.7,-,N/A,,Overcast,130,2013-03-07 03:15:00
9:35 PM,17.6,15.8,93,29.95,10.0,SE,25.3,-,N/A,,Overcast,130,2013-03-07 03:35:00
9:55 PM,17.6,15.8,93,29.94,10.0,ESE,21.9,-,N/A,,Scattered Clouds,120,2013-03-07 03:55:00
10:15 PM,17.6,14.0,86,29.95,10.0,ESE,20.7,24.2,N/A,,Scattered Clouds,120,2013-03-07 04:15:00
10:35 PM,17.6,14.0,86,29.95,10.0,ESE,16.1,-,N/A,,Mostly Cloudy,120,2013-03-07 04:35:00
10:55 PM,17.6,14.0,86,29.95,10.0,SE,17.3,23.0,N/A,,Mostly Cloudy,130,2013-03-07 04:55:00
11:15 PM,15.8,14.0,93,29.94,10.0,ESE,16.1,21.9,N/A,,Scattered Clouds,120,2013-03-07 05:15:00
11:35 PM,15.8,14.0,93,29.94,10.0,ESE,13.8,17.3,N/A,,Partly Cloudy,120,2013-03-07 05:35:00
11:55 PM,15.8,14.0,93,29.93,10.0,ESE,12.7,-,N/A,,Clear,120,2013-03-07 05:55:00